Location: Betzi
(47.2343°N, 9.5260°E)
Time: 22:25:51
(UTC+00:00)

Cosmos 1603 - Pass Details

Date: 27 May 2022
Orbit: 829 x 861 km, 71.0° (Epoch: 29 June)

Event Time Altitude Azimuth Distance (km) Brightness Sun altitude
Exits shadow 02:06:04 10° 187° (S) 2,411 5.6 -11.9°
Maximum altitude 02:11:27 55° 110° (ESE) 1,002 4.2 -11.3°
Drops below altitude 10° 02:16:58 10° 34° (NE) 2,477 7.7 -10.7°
Sets 02:19:29 0° 31° (NNE) 3,421 8.8 -10.4°
